Regional Weather Roundup
Issued by NWS

Home | Current Version | Previous Version | Graphics & Text | Print | Product List | Glossary On
Versions: 1 2 3 4 5 6 7 8 9 10 11 12 13 14 15 16 17 18 19 20 21 22 23 24 25 26 27 28 29 30 31 32 33 34 35 36 37 38 39 40 41 42 43 44 45 46 47 48 49 50
000
ASUS43 KOAX 251310
RWRNE

WEATHER ROUNDUP FOR NEBRASKA
NATIONAL WEATHER SERVICE OMAHA NE
800 AM CDT WED APR 25 2018

NOTES: SATELLITE DATA IS BEING USED TO AUGMENT CLOUD COVER ABOVE
       12000 FEET.
       "FAIR" INDICATES FEW OR NO CLOUDS BELOW 12,000 FEET WITH NO
       SIGNIFICANT WEATHER AND/OR OBSTRUCTIONS TO VISIBILITY.


NEZ001>004-019>022-054>056-251400-
NEBRASKA PANHANDLE

CITY           SKY/WX    TMP DP  RH WIND       PRES   REMARKS
SCOTTSBLUFF    SUNNY     28  26  92 CALM      30.34F
ALLIANCE       SUNNY     25  24  96 W7        30.32S WCI  17
CHADRON        SUNNY     27  24  89 SW5       30.32F WCI  22
GORDON         FAIR      31  26  84 W3        30.32S
KIMBALL        SUNNY     28  26  93 W5        30.34R WCI  22
SIDNEY         SUNNY     30  27  88 NW8       30.35R WCI  22
$$

NEZ057>060-069>072-079>082-251400-
SOUTHWEST NEBRASKA

CITY           SKY/WX    TMP DP  RH WIND       PRES   REMARKS
NORTH PLATTE   MOSUNNY   37  32  82 NW8       30.33S WCI  31
IMPERIAL       SUNNY     34  30  85 W8        30.35R WCI  27
LEXINGTON      CLOUDY    40  37  87 NE3       30.33R
MCCOOK         PTSUNNY   39  35  86 NW9       30.34S WCI  33
OGALLALA       SUNNY     36  31  82 NW10      30.34S WCI  29
$$

NEZ005>010-023>029-035>040-094-251400-
NORTH CENTRAL NEBRASKA

CITY           SKY/WX    TMP DP  RH WIND       PRES   REMARKS
VALENTINE      SUNNY     33  29  85 W8        30.32R WCI  26
AINSWORTH      SUNNY     34  32  92 W6        30.32R WCI  29
BROKEN BOW     CLOUDY    40  35  83 NW6       30.31R
O`NEILL        MOSUNNY   39  36  88 NW8       30.32S WCI  33
ORD            CLOUDY    40  38  93 NW5       30.30S
THEDFORD       SUNNY     36  32  87 W5        30.33S WCI  32
$$

NEZ041-046>049-061>064-073>077-083>087-251400-
SOUTH CENTRAL NEBRASKA

CITY           SKY/WX    TMP DP  RH WIND       PRES   REMARKS
GRAND ISLAND   CLOUDY    41  37  86 N10       30.31R
AURORA         RAIN      40  38  95 N8        30.30R WCI  34
HASTINGS       CLOUDY    40  38  93 N16       30.30R WCI  31
HEBRON         LGT RAIN  42  40  91 N14G20    30.27R
HOLDREGE       CLOUDY    39  37  92 N14       30.31S WCI  31
KEARNEY        CLOUDY    39  36  89 N15       30.31S WCI  31
YORK             N/A     41  41 100 N9        30.28R
$$

NEZ011>018-030>034-042>045-251400-
NORTHEAST NEBRASKA

CITY           SKY/WX    TMP DP  RH WIND       PRES   REMARKS
NORFOLK        CLOUDY    40  36  86 NW12      30.28S WCI  33
ALBION         CLOUDY    42  36  80 N7        30.30R
BLAIR          RAIN      42  37  83 N13       30.24S
FREMONT        LGT RAIN  44  39  84 CALM      30.27R
TEKAMAH        CLOUDY    43  38  82 N12       30.27R
WAYNE          CLOUDY    40  38  91 N13       30.28S WCI  33
$$

NEZ050>053-065>068-078-088>093-251400-
SOUTHEAST NEBRASKA

CITY           SKY/WX    TMP DP  RH WIND       PRES   REMARKS
LINCOLN        CLOUDY    44  40  85 N15       30.27R
OMAHA EPPLEY   LGT RAIN  43  40  89 N14       30.24R
BEATRICE       LGT RAIN  44  42  95 N14       30.24S
FALLS CITY     LGT RAIN  47  45  93 N10       30.19S
NEBRASKA CITY  LGT RAIN  45  45 100 N12       30.22R
PLATTSMOUTH    DRIZZLE   44  42  92 N8        30.23R
$$

NEZ044-045-051>053-067-251400-
OMAHA AREA

CITY           SKY/WX    TMP DP  RH WIND       PRES   REMARKS
OMAHA EPPLEY   LGT RAIN  43  40  89 N14       30.24R
BLAIR          RAIN      42  37  83 N13       30.24S
FREMONT        LGT RAIN  44  39  84 CALM      30.27R
MILLARD        LGT RAIN  44  40  86 N8        30.25R
OFFUTT AFB     LGT RAIN  45  41  87 N9        30.23R
PLATTSMOUTH    DRIZZLE   44  42  92 N8        30.23R
WAHOO          LGT RAIN  43  38  82 N10       30.27R
$$



USA.gov is the U.S. government's official web portal to all federal, state and local government web resources and services.